User: anonymous   Login
Location: Unspecified
(0.0000°N, 0.0000°E)
Time: 18:20:48
(UTC+00:00)
Language:

PEASSS - Orbit

View from above orbital plane
View from above orbital plane
View from above satellite
View from above satellite

Ground track
Ground track

The orbit is defined by the following mean orbital elements,

1 42015U 17008BV  23332.13550576  .11791653  24087-5  42855-3 0  9999
2 42015  97.1503  39.8233 0008517 270.0130  90.0196 16.43624330378556
Epoch (UTC): 28 November 2023 03:15:07
Eccentricity: 0.0008517
inclination: 97.1503°
perigee height: 150 km
apogee height: 162 km
right ascension of ascending node: 39.8233°
argument of perigee: 270.0130°
revolutions per day: 16.43624330
mean anomaly at epoch: 90.0196°

The dashed part of the orbit path shows where the satellite is in the earth's shadow,  

DLR